TimeMST,TemperatureF,Dew PointF,Humidity,Sea Level PressureIn,VisibilityMPH,Wind Direction,Wind SpeedMPH,Gust SpeedMPH,PrecipitationIn,Events,Conditions,WindDirDegrees,DateUTC
12:53 AM,33.1,28.0,82,29.95,10.0,West,5.8,-,N/A,,Overcast,270,2012-12-06 07:53:00
1:53 AM,39.0,26.1,60,29.94,10.0,WNW,9.2,-,N/A,,Overcast,300,2012-12-06 08:53:00
2:53 AM,36.0,21.0,55,29.97,10.0,NW,4.6,-,N/A,,Scattered Clouds,310,2012-12-06 09:53:00
3:53 AM,36.0,21.9,57,29.99,10.0,SE,3.5,-,N/A,,Overcast,140,2012-12-06 10:53:00
4:53 AM,35.1,23.0,61,30.00,10.0,Calm,Calm,-,N/A,,Overcast,0,2012-12-06 11:53:00
5:53 AM,32.0,21.0,64,30.04,10.0,North,3.5,-,N/A,,Clear,350,2012-12-06 12:53:00
6:53 AM,28.9,21.9,75,30.06,10.0,ESE,8.1,-,N/A,,Mostly Cloudy,110,2012-12-06 13:53:00
7:53 AM,25.0,21.0,85,30.06,10.0,SE,3.5,-,N/A,,Clear,140,2012-12-06 14:53:00
8:53 AM,30.0,23.0,75,30.06,10.0,Calm,Calm,-,N/A,,Clear,0,2012-12-06 15:53:00
9:53 AM,35.1,21.9,59,30.03,10.0,Calm,Calm,-,N/A,,Clear,0,2012-12-06 16:53:00
10:53 AM,39.9,21.9,49,30.00,10.0,Calm,Calm,-,N/A,,Clear,0,2012-12-06 17:53:00
11:53 AM,41.0,19.9,43,29.96,10.0,Calm,Calm,-,N/A,,Clear,0,2012-12-06 18:53:00
12:53 PM,41.0,19.9,43,29.93,10.0,Calm,Calm,-,N/A,,Clear,0,2012-12-06 19:53:00
1:53 PM,42.1,21.0,43,29.87,10.0,North,5.8,-,N/A,,Clear,350,2012-12-06 20:53:00
2:53 PM,43.0,21.0,42,29.86,10.0,NNE,4.6,-,N/A,,Clear,20,2012-12-06 21:53:00
3:53 PM,39.0,21.0,49,29.86,10.0,North,5.8,-,N/A,,Clear,10,2012-12-06 22:53:00
4:53 PM,35.1,21.0,57,29.88,10.0,Calm,Calm,-,N/A,,Clear,0,2012-12-06 23:53:00
5:53 PM,34.0,21.0,59,29.90,10.0,North,5.8,-,N/A,,Clear,350,2012-12-07 00:53:00
6:53 PM,32.0,21.0,64,29.91,10.0,West,3.5,-,N/A,,Mostly Cloudy,270,2012-12-07 01:53:00
7:53 PM,30.0,21.0,69,29.91,10.0,Calm,Calm,-,N/A,,Mostly Cloudy,0,2012-12-07 02:53:00
8:53 PM,27.0,19.9,75,29.91,10.0,South,3.5,-,N/A,,Partly Cloudy,190,2012-12-07 03:53:00
9:53 PM,28.0,21.0,75,29.91,10.0,SW,4.6,-,N/A,,Overcast,230,2012-12-07 04:53:00
10:53 PM,30.9,21.9,69,29.89,10.0,NW,5.8,-,N/A,,Overcast,310,2012-12-07 05:53:00
11:29 PM,30.2,26.6,86,29.84,10.0,NNW,10.4,-,N/A,,Overcast,330,2012-12-07 06:29:00
11:45 PM,30.2,26.6,86,29.85,8.0,NNW,8.1,-,0.00,Snow,Light Snow,340,2012-12-07 06:45:00
11:53 PM,30.9,27.0,85,29.91,5.0,NNW,6.9,-,0.00,Snow,Light Snow,330,2012-12-07 06:53:00